Location: Boneville
(33.4331°N, 82.4399°W)
Time: 10:20:19
(UTC+00:00)

Envisat - Visible Passes

Search period start: 20 September 2024 00:00
Search period end: 30 September 2024 00:00
Orbit: 762 x 764 km, 98.3° (Epoch: 19 September)

Date Brightness Start Highest point End Pass type
(mag) Time Alt. Az. Time Alt. Az. Time Alt. Az.
20 Sep 5.7 07:45:14 10° NE 07:46:23 15° NE 07:46:23 15° NE visible
20 Sep 4.4 09:23:56 10° N 09:26:31 24° NW 09:26:31 24° NW visible
21 Sep 4.4 08:45:58 10° N 08:48:31 30° N 08:48:31 30° N visible
22 Sep 5.2 08:08:42 10° NNE 08:10:30 21° NE 08:10:30 21° NE visible
22 Sep 4.8 09:48:52 10° NNW 09:50:39 15° NW 09:50:39 15° NW visible
23 Sep 6.0 07:32:26 10° NE 07:32:30 10° NE 07:32:30 10° NE visible
23 Sep 4.4 09:10:16 10° N 09:12:38 25° NNW 09:12:38 25° NNW visible
24 Sep 4.8 08:32:33 10° NNE 08:34:37 25° NNE 08:34:37 25° NNE visible
25 Sep 5.6 07:55:33 10° NNE 07:56:36 15° NE 07:56:36 15° NE visible
25 Sep 4.7 09:34:55 10° NNW 09:36:45 18° NW 09:36:45 18° NW visible
26 Sep 4.6 08:56:41 10° N 08:58:44 24° N 08:58:44 24° N visible
27 Sep 5.2 08:19:13 10° NNE 08:20:42 20° NNE 08:20:42 20° NNE visible
27 Sep 5.1 10:00:15 10° NW 10:00:50 11° NW 10:00:50 11° NW visible
28 Sep 6.0 07:42:32 10° NE 07:42:41 11° NE 07:42:41 11° NE visible
28 Sep 4.8 09:21:07 10° N 09:22:49 19° NNW 09:22:49 19° NNW visible
29 Sep 4.9 08:43:10 10° N 08:44:48 21° N 08:44:48 21° N visible
